Time,TemperatureF,DewpointF,PressureIn,WindDirection,WindDirectionDegrees,WindSpeedMPH,WindSpeedGustMPH,Humidity,HourlyPrecipIn,Conditions,Clouds,dailyrainin,SoftwareType,DateUTC
2013-04-04 00:03:00,45.0,42.0,30.21,ENE,74,1.0,8.0,90,0.02,,,0.12,,2013-04-04 04:03:00,
2013-04-04 00:13:00,45.0,42.0,30.21,ENE,74,1.0,8.0,90,0.02,,,0.12,,2013-04-04 04:13:00,
2013-04-04 00:23:00,45.0,43.0,30.20,East,90,2.0,5.0,91,0.03,,,0.13,,2013-04-04 04:23:00,
2013-04-04 00:33:00,45.0,43.0,30.20,East,90,2.0,5.0,91,0.03,,,0.13,,2013-04-04 04:33:00,
2013-04-04 00:43:00,45.0,43.0,30.20,East,90,2.0,5.0,91,0.03,,,0.13,,2013-04-04 04:43:00,
2013-04-04 00:53:00,45.0,43.0,30.20,ESE,108,3.0,8.0,91,0.01,,,0.13,,2013-04-04 04:53:00,
2013-04-04 01:02:00,45.0,43.0,30.20,ESE,108,3.0,8.0,91,0.01,,,0.13,,2013-04-04 05:02:00,
2013-04-04 01:13:00,45.0,43.0,30.20,ESE,108,3.0,8.0,91,0.01,,,0.13,,2013-04-04 05:13:00,
2013-04-04 01:23:00,45.0,42.0,30.19,ESE,114,1.0,8.0,90,0.01,,,0.14,,2013-04-04 05:23:00,
2013-04-04 01:32:00,45.0,42.0,30.19,ESE,114,1.0,8.0,90,0.01,,,0.14,,2013-04-04 05:32:00,
2013-04-04 01:42:00,45.0,42.0,30.19,ESE,114,1.0,8.0,90,0.01,,,0.14,,2013-04-04 05:42:00,
2013-04-04 01:53:00,45.0,42.0,30.19,ENE,61,2.0,6.0,90,0.01,,,0.14,,2013-04-04 05:53:00,
2013-04-04 02:02:00,45.0,42.0,30.19,ENE,61,2.0,6.0,90,0.01,,,0.14,,2013-04-04 06:02:00,
2013-04-04 02:12:00,45.0,42.0,30.19,ENE,61,2.0,6.0,90,0.01,,,0.14,,2013-04-04 06:12:00,
2013-04-04 02:22:00,45.0,42.0,30.20,ESE,121,1.0,7.0,90,0.00,,,0.14,,2013-04-04 06:22:00,
2013-04-04 02:32:00,45.0,42.0,30.20,ESE,121,1.0,7.0,90,0.00,,,0.14,,2013-04-04 06:32:00,
2013-04-04 02:43:00,45.0,42.0,30.20,ESE,121,1.0,7.0,90,0.00,,,0.14,,2013-04-04 06:43:00,
2013-04-04 02:53:00,45.0,43.0,30.18,ENE,75,0.0,9.0,91,0.01,,,0.15,,2013-04-04 06:53:00,
2013-04-04 03:02:00,45.0,43.0,30.18,ENE,75,0.0,9.0,91,0.01,,,0.15,,2013-04-04 07:02:00,
2013-04-04 03:12:00,45.0,43.0,30.18,ENE,75,0.0,9.0,91,0.01,,,0.15,,2013-04-04 07:12:00,
2013-04-04 03:22:00,45.0,43.0,30.16,ESE,106,1.0,9.0,92,0.03,,,0.17,,2013-04-04 07:22:00,
2013-04-04 03:32:00,45.0,43.0,30.16,ESE,106,1.0,9.0,92,0.03,,,0.17,,2013-04-04 07:32:00,
2013-04-04 03:43:00,45.0,43.0,30.16,ESE,106,1.0,9.0,92,0.03,,,0.17,,2013-04-04 07:43:00,
2013-04-04 03:53:00,45.0,42.0,30.17,ENE,73,0.0,3.0,90,0.03,,,0.18,,2013-04-04 07:53:00,
2013-04-04 04:02:00,45.0,42.0,30.17,ENE,73,0.0,3.0,90,0.03,,,0.18,,2013-04-04 08:02:00,
2013-04-04 04:12:00,45.0,42.0,30.17,ENE,73,0.0,3.0,90,0.03,,,0.18,,2013-04-04 08:12:00,
2013-04-04 04:23:00,45.0,42.0,30.15,East,91,2.0,7.0,89,0.01,,,0.18,,2013-04-04 08:23:00,
2013-04-04 04:32:00,45.0,42.0,30.15,East,91,2.0,7.0,89,0.01,,,0.18,,2013-04-04 08:32:00,
2013-04-04 04:43:00,45.0,42.0,30.15,East,91,2.0,7.0,89,0.01,,,0.18,,2013-04-04 08:43:00,
2013-04-04 04:52:00,44.0,41.0,30.14,NE,53,3.0,8.0,90,0.02,,,0.20,,2013-04-04 08:52:00,
2013-04-04 05:03:00,44.0,41.0,30.14,NE,53,3.0,8.0,90,0.02,,,0.20,,2013-04-04 09:03:00,
2013-04-04 05:13:00,44.0,41.0,30.14,NE,53,3.0,8.0,90,0.02,,,0.20,,2013-04-04 09:13:00,
2013-04-04 05:22:00,43.0,41.0,30.13,East,86,3.0,13.0,91,0.03,,,0.21,,2013-04-04 09:22:00,
2013-04-04 05:33:00,43.0,41.0,30.13,East,86,3.0,13.0,91,0.03,,,0.21,,2013-04-04 09:33:00,
2013-04-04 05:44:00,43.0,41.0,30.13,East,86,3.0,13.0,91,0.03,,,0.21,,2013-04-04 09:44:00,
2013-04-04 05:54:00,43.0,41.0,30.12,ENE,72,4.0,10.0,91,0.02,,,0.22,,2013-04-04 09:54:00,
2013-04-04 06:04:00,43.0,41.0,30.12,ENE,72,4.0,10.0,91,0.02,,,0.22,,2013-04-04 10:04:00,
2013-04-04 06:12:00,43.0,41.0,30.12,ENE,72,4.0,10.0,91,0.02,,,0.22,,2013-04-04 10:12:00,
2013-04-04 06:24:00,44.0,41.0,30.12,East,79,7.0,16.0,89,0.01,,,0.22,,2013-04-04 10:24:00,
2013-04-04 06:33:00,44.0,41.0,30.12,East,79,7.0,16.0,89,0.01,,,0.22,,2013-04-04 10:33:00,
2013-04-04 06:43:00,44.0,41.0,30.12,East,79,7.0,16.0,89,0.01,,,0.22,,2013-04-04 10:43:00,
2013-04-04 06:54:00,44.0,41.0,30.11,ENE,59,2.0,26.0,88,0.01,,,0.23,,2013-04-04 10:54:00,
2013-04-04 07:03:00,44.0,41.0,30.11,ENE,59,2.0,26.0,88,0.01,,,0.23,,2013-04-04 11:03:00,
2013-04-04 07:12:00,44.0,41.0,30.11,ENE,59,2.0,26.0,88,0.01,,,0.23,,2013-04-04 11:12:00,
2013-04-04 07:22:00,44.0,41.0,30.10,ESE,108,8.0,24.0,88,0.02,,,0.24,,2013-04-04 11:22:00,
2013-04-04 07:33:00,44.0,41.0,30.10,ESE,108,8.0,24.0,88,0.02,,,0.24,,2013-04-04 11:33:00,
2013-04-04 07:43:00,44.0,41.0,30.10,ESE,108,8.0,24.0,88,0.02,,,0.24,,2013-04-04 11:43:00,
2013-04-04 07:55:00,43.0,40.0,30.11,NE,53,7.0,18.0,89,0.03,,,0.26,,2013-04-04 11:55:00,
2013-04-04 08:03:00,43.0,40.0,30.11,NE,53,7.0,18.0,89,0.03,,,0.26,,2013-04-04 12:03:00,
2013-04-04 08:12:00,43.0,40.0,30.11,NE,53,7.0,18.0,89,0.03,,,0.26,,2013-04-04 12:12:00,
2013-04-04 08:22:00,43.0,40.0,30.11,NE,53,7.0,18.0,89,0.03,,,0.26,,2013-04-04 12:22:00,
2013-04-04 08:32:00,43.0,40.0,30.11,NE,53,7.0,18.0,89,0.03,,,0.26,,2013-04-04 12:32:00,
2013-04-04 08:53:00,42.0,39.0,30.12,East,89,5.0,14.0,90,0.02,,,0.28,,2013-04-04 12:53:00,
2013-04-04 09:03:00,42.0,39.0,30.12,East,89,5.0,14.0,90,0.02,,,0.28,,2013-04-04 13:03:00,
2013-04-04 09:13:00,42.0,39.0,30.12,East,89,5.0,14.0,90,0.02,,,0.28,,2013-04-04 13:13:00,
2013-04-04 09:22:00,42.0,40.0,30.12,ENE,69,8.0,17.0,92,0.04,,,0.31,,2013-04-04 13:22:00,
2013-04-04 09:32:00,42.0,40.0,30.12,ENE,69,8.0,17.0,92,0.04,,,0.31,,2013-04-04 13:32:00,
2013-04-04 09:43:00,42.0,40.0,30.12,ENE,69,8.0,17.0,92,0.04,,,0.31,,2013-04-04 13:43:00,
2013-04-04 09:53:00,42.0,40.0,30.12,ESE,105,4.0,14.0,92,0.06,,,0.34,,2013-04-04 13:53:00,
2013-04-04 10:03:00,42.0,40.0,30.12,ESE,105,4.0,14.0,92,0.06,,,0.34,,2013-04-04 14:03:00,
2013-04-04 10:13:00,42.0,40.0,30.12,ESE,105,4.0,14.0,92,0.06,,,0.34,,2013-04-04 14:13:00,
2013-04-04 10:22:00,42.0,40.0,30.12,East,90,7.0,15.0,93,0.03,,,0.34,,2013-04-04 14:22:00,
2013-04-04 10:33:00,42.0,40.0,30.12,East,90,7.0,15.0,93,0.03,,,0.34,,2013-04-04 14:33:00,
2013-04-04 10:43:00,42.0,40.0,30.12,East,90,7.0,15.0,93,0.03,,,0.34,,2013-04-04 14:43:00,
2013-04-04 10:53:00,41.0,39.0,30.11,SE,131,6.0,18.0,93,0.04,,,0.38,,2013-04-04 14:53:00,
2013-04-04 11:02:00,41.0,39.0,30.11,SE,131,6.0,18.0,93,0.04,,,0.38,,2013-04-04 15:02:00,
2013-04-04 11:13:00,41.0,39.0,30.11,SE,131,6.0,18.0,93,0.04,,,0.38,,2013-04-04 15:13:00,
2013-04-04 11:23:00,41.0,39.0,30.12,East,95,3.0,16.0,93,0.05,,,0.39,,2013-04-04 15:23:00,
2013-04-04 11:33:00,41.0,39.0,30.12,East,95,3.0,16.0,93,0.05,,,0.39,,2013-04-04 15:33:00,
2013-04-04 11:43:00,41.0,39.0,30.12,East,95,3.0,16.0,93,0.05,,,0.39,,2013-04-04 15:43:00,
2013-04-04 11:54:00,41.0,39.0,30.14,ESE,111,3.0,21.0,92,0.01,,,0.40,,2013-04-04 15:54:00,
2013-04-04 12:03:00,41.0,39.0,30.14,ESE,111,3.0,21.0,92,0.01,,,0.40,,2013-04-04 16:03:00,
2013-04-04 12:13:00,41.0,39.0,30.14,ESE,111,3.0,21.0,92,0.01,,,0.40,,2013-04-04 16:13:00,
2013-04-04 12:24:00,40.0,38.0,30.15,East,90,6.0,21.0,93,0.02,,,0.41,,2013-04-04 16:24:00,
2013-04-04 12:33:00,40.0,38.0,30.15,East,90,6.0,21.0,93,0.02,,,0.41,,2013-04-04 16:33:00,
2013-04-04 12:43:00,40.0,38.0,30.15,East,90,6.0,21.0,93,0.02,,,0.41,,2013-04-04 16:43:00,
2013-04-04 12:54:00,40.0,38.0,30.14,East,98,6.0,16.0,94,0.02,,,0.42,,2013-04-04 16:54:00,
2013-04-04 13:03:00,40.0,38.0,30.14,East,98,6.0,16.0,94,0.02,,,0.42,,2013-04-04 17:03:00,
2013-04-04 13:14:00,40.0,38.0,30.14,East,98,6.0,16.0,94,0.02,,,0.42,,2013-04-04 17:14:00,
2013-04-04 13:23:00,39.0,37.0,30.12,ENE,65,4.0,14.0,94,0.01,,,0.42,,2013-04-04 17:23:00,
2013-04-04 13:33:00,39.0,37.0,30.12,ENE,65,4.0,14.0,94,0.01,,,0.42,,2013-04-04 17:33:00,
2013-04-04 13:43:00,39.0,37.0,30.12,ENE,65,4.0,14.0,94,0.01,,,0.42,,2013-04-04 17:43:00,
2013-04-04 13:53:00,39.0,37.0,30.09,East,94,6.0,17.0,94,0.00,,,0.42,,2013-04-04 17:53:00,
2013-04-04 14:02:00,39.0,37.0,30.09,East,94,6.0,17.0,94,0.00,,,0.42,,2013-04-04 18:02:00,
2013-04-04 14:12:00,39.0,37.0,30.09,East,94,6.0,17.0,94,0.00,,,0.42,,2013-04-04 18:12:00,
2013-04-04 14:23:00,39.0,37.0,30.08,East,87,1.0,13.0,94,0.00,,,0.42,,2013-04-04 18:23:00,
2013-04-04 14:32:00,39.0,37.0,30.08,East,87,1.0,13.0,94,0.00,,,0.42,,2013-04-04 18:32:00,
2013-04-04 14:43:00,39.0,37.0,30.08,East,87,1.0,13.0,94,0.00,,,0.42,,2013-04-04 18:43:00,
2013-04-04 14:53:00,40.0,38.0,30.07,ESE,107,3.0,10.0,94,0.00,,,0.42,,2013-04-04 18:53:00,
2013-04-04 15:02:00,40.0,38.0,30.07,ESE,107,3.0,10.0,94,0.00,,,0.42,,2013-04-04 19:02:00,
2013-04-04 15:12:00,40.0,38.0,30.07,ESE,107,3.0,10.0,94,0.00,,,0.42,,2013-04-04 19:12:00,
2013-04-04 15:22:00,39.0,37.0,30.06,East,90,3.0,15.0,93,0.00,,,0.42,,2013-04-04 19:22:00,
2013-04-04 15:33:00,39.0,37.0,30.06,East,90,3.0,15.0,93,0.00,,,0.42,,2013-04-04 19:33:00,
2013-04-04 15:43:00,39.0,37.0,30.06,East,90,3.0,15.0,93,0.00,,,0.42,,2013-04-04 19:43:00,
2013-04-04 15:52:00,39.0,37.0,30.06,East,94,7.0,16.0,94,0.01,,,0.43,,2013-04-04 19:52:00,
2013-04-04 16:04:00,39.0,37.0,30.06,East,94,7.0,16.0,94,0.01,,,0.43,,2013-04-04 20:04:00,
2013-04-04 16:12:00,39.0,37.0,30.06,East,94,7.0,16.0,94,0.01,,,0.43,,2013-04-04 20:12:00,
2013-04-04 16:23:00,39.0,38.0,30.06,East,98,2.0,10.0,95,0.01,,,0.43,,2013-04-04 20:23:00,
2013-04-04 16:32:00,39.0,38.0,30.06,East,98,2.0,10.0,95,0.01,,,0.43,,2013-04-04 20:32:00,
2013-04-04 16:42:00,39.0,38.0,30.06,East,98,2.0,10.0,95,0.01,,,0.43,,2013-04-04 20:42:00,
2013-04-04 16:53:00,39.0,38.0,30.06,East,98,2.0,8.0,95,0.01,,,0.44,,2013-04-04 20:53:00,
2013-04-04 17:02:00,39.0,38.0,30.06,East,98,2.0,8.0,95,0.01,,,0.44,,2013-04-04 21:02:00,
2013-04-04 17:12:00,39.0,38.0,30.06,East,98,2.0,8.0,95,0.01,,,0.44,,2013-04-04 21:12:00,
2013-04-04 17:22:00,39.0,38.0,30.05,ESE,115,1.0,10.0,95,0.02,,,0.45,,2013-04-04 21:22:00,
2013-04-04 17:32:00,39.0,38.0,30.05,ESE,115,1.0,10.0,95,0.02,,,0.45,,2013-04-04 21:32:00,
2013-04-04 17:43:00,39.0,38.0,30.05,ESE,115,1.0,10.0,95,0.02,,,0.45,,2013-04-04 21:43:00,
2013-04-04 17:53:00,39.0,38.0,30.04,ESE,106,1.0,9.0,95,0.01,,,0.45,,2013-04-04 21:53:00,
2013-04-04 18:04:00,39.0,38.0,30.04,ESE,106,1.0,9.0,95,0.01,,,0.45,,2013-04-04 22:04:00,
2013-04-04 18:12:00,39.0,38.0,30.04,ESE,106,1.0,9.0,95,0.01,,,0.45,,2013-04-04 22:12:00,
2013-04-04 18:23:00,39.0,38.0,30.04,SE,125,3.0,11.0,95,0.00,,,0.45,,2013-04-04 22:23:00,
2013-04-04 18:33:00,39.0,38.0,30.04,SE,125,3.0,11.0,95,0.00,,,0.45,,2013-04-04 22:33:00,
2013-04-04 18:43:00,39.0,38.0,30.04,SE,125,3.0,11.0,95,0.00,,,0.45,,2013-04-04 22:43:00,
2013-04-04 18:53:00,39.0,38.0,30.03,East,92,2.0,7.0,95,0.00,,,0.45,,2013-04-04 22:53:00,
2013-04-04 19:03:00,39.0,38.0,30.03,East,92,2.0,7.0,95,0.00,,,0.45,,2013-04-04 23:03:00,
2013-04-04 19:13:00,39.0,38.0,30.03,East,92,2.0,7.0,95,0.00,,,0.45,,2013-04-04 23:13:00,
2013-04-04 19:22:00,39.0,38.0,30.03,ESE,119,2.0,11.0,95,0.00,,,0.45,,2013-04-04 23:22:00,
2013-04-04 19:32:00,39.0,38.0,30.03,ESE,119,2.0,11.0,95,0.00,,,0.45,,2013-04-04 23:32:00,
2013-04-04 19:42:00,39.0,38.0,30.03,ESE,119,2.0,11.0,95,0.00,,,0.45,,2013-04-04 23:42:00,
2013-04-04 19:52:00,39.0,38.0,30.03,East,95,1.0,4.0,95,0.00,,,0.45,,2013-04-04 23:52:00,
2013-04-04 20:02:00,39.0,38.0,30.03,East,95,1.0,4.0,95,0.00,,,0.45,,2013-04-05 00:02:00,
2013-04-04 20:12:00,39.0,38.0,30.03,East,95,1.0,4.0,95,0.00,,,0.45,,2013-04-05 00:12:00,
2013-04-04 20:22:00,39.0,38.0,30.03,NNE,16,2.0,8.0,95,0.00,,,0.42,,2013-04-05 00:22:00,
2013-04-04 20:33:00,39.0,38.0,30.03,NNE,16,2.0,8.0,95,0.00,,,0.42,,2013-04-05 00:33:00,
2013-04-04 20:43:00,39.0,38.0,30.03,NNE,16,2.0,8.0,95,0.00,,,0.42,,2013-04-05 00:43:00,
2013-04-04 20:52:00,39.0,38.0,30.02,East,84,3.0,9.0,95,0.00,,,0.42,,2013-04-05 00:52:00,
2013-04-04 21:02:00,39.0,38.0,30.02,East,84,3.0,9.0,95,0.00,,,0.42,,2013-04-05 01:02:00,
2013-04-04 21:12:00,39.0,38.0,30.02,East,84,3.0,9.0,95,0.00,,,0.42,,2013-04-05 01:12:00,
2013-04-04 21:22:00,39.0,38.0,30.02,East,94,2.0,12.0,95,0.00,,,0.37,,2013-04-05 01:22:00,
2013-04-04 21:32:00,39.0,38.0,30.02,East,94,2.0,12.0,95,0.00,,,0.37,,2013-04-05 01:32:00,
2013-04-04 21:42:00,39.0,38.0,30.02,East,94,2.0,12.0,95,0.00,,,0.37,,2013-04-05 01:42:00,
2013-04-04 21:54:00,39.0,38.0,30.03,East,81,1.0,10.0,95,0.00,,,0.37,,2013-04-05 01:54:00,
2013-04-04 22:03:00,39.0,38.0,30.03,East,81,1.0,10.0,95,0.00,,,0.37,,2013-04-05 02:03:00,
2013-04-04 22:12:00,39.0,38.0,30.03,East,81,1.0,10.0,95,0.00,,,0.37,,2013-04-05 02:12:00,
2013-04-04 22:22:00,39.0,38.0,30.03,East,86,1.0,7.0,95,0.00,,,0.36,,2013-04-05 02:22:00,
2013-04-04 22:32:00,39.0,38.0,30.03,East,86,1.0,7.0,95,0.00,,,0.36,,2013-04-05 02:32:00,
2013-04-04 22:42:00,39.0,38.0,30.03,East,86,1.0,7.0,95,0.00,,,0.36,,2013-04-05 02:42:00,
2013-04-04 22:52:00,39.0,38.0,30.03,ENE,78,0.0,4.0,95,0.00,,,0.36,,2013-04-05 02:52:00,
2013-04-04 23:02:00,39.0,38.0,30.03,ENE,78,0.0,4.0,95,0.00,,,0.36,,2013-04-05 03:02:00,
2013-04-04 23:12:00,39.0,38.0,30.03,ENE,78,0.0,4.0,95,0.00,,,0.36,,2013-04-05 03:12:00,
2013-04-04 23:22:00,39.0,38.0,30.02,ENE,77,0.0,5.0,95,0.00,,,0.35,,2013-04-05 03:22:00,
2013-04-04 23:32:00,39.0,38.0,30.02,ENE,77,0.0,5.0,95,0.00,,,0.35,,2013-04-05 03:32:00,
2013-04-04 23:43:00,39.0,38.0,30.02,ENE,77,0.0,5.0,95,0.00,,,0.35,,2013-04-05 03:43:00,
2013-04-04 23:54:00,39.0,38.0,30.01,ENE,76,1.0,7.0,96,0.00,,,0.35,,2013-04-05 03:54:00,